[[{"header":{"parameterUnit":"m.s-1","parameterCategory":1,"la1":30.2991,"la2":30.254,"lo1":-89.0895,"lo2":-89.0444,"dy":0.0017,"dx":0.0017,"nx":28,"ny":28,"refTime":"2024-04-08T03:00:00:Z","depth":0,"parameterNumber":2,"parameterNumberName":"U-component_of_WINDS"},"data":[0,0,0,0,0,0,0,0,0,0,0,0,0,0,0,0,0,0,0,0,0,0,0,0,0,0,0,0,0,0,0,0,0,0,0,0,0,0,0,0,0,0,0,0,0,0,0,0,0,0,0,0,0,0,0,0,0,0,-3.3552,-3.3552,0,-3.3609,-3.361,-3.3611,-3.3628,-3.3628,-3.3628,-3.3628,-3.3685,-3.3687,-3.3688,0,0,0,0,0,0,0,0,0,0,0,0,0,-3.3455,-3.3457,-3.3552,-3.3552,-3.3553,-3.3609,-3.361,-3.3611,-3.3629,-3.3628,-3.3628,-3.3628,-3.3684,-3.3686,-3.3689,0,0,0,0,0,0,0,0,0,0,0,0,0,-3.3503,-3.3457,-3.3551,-3.3569,-3.3571,-3.3609,-3.361,-3.3611,-3.3629,-3.3628,-3.3628,-3.3627,-3.3684,-3.3686,-3.3689,-3.3714,0,0,-3.3697,-3.3698,0,0,0,0,0,0,0,0,-3.3501,-3.3507,-3.3565,-3.3568,-3.357,-3.3611,-3.3597,-3.3645,-3.3629,-3.3607,-3.3628,-3.3627,-3.3661,-3.3665,-3.3677,-3.3716,-3.3719,-3.3697,-3.3699,-3.37,-3.3701,0,0,0,0,0,0,0,-3.3497,-3.3504,-3.3574,-3.3566,-3.3569,-3.3573,-3.3579,-3.3606,-3.3635,-3.3608,-3.361,-3.3617,-3.3662,-3.3674,-3.3678,-3.372,-3.3697,-3.37,-3.3701,-3.3702,-3.3783,-3.3783,0,0,0,0,0,0,-3.3491,-3.3502,-3.3573,-3.3576,-3.3534,-3.3575,-3.3582,-3.3598,-3.3635,-3.364,-3.3617,-3.3617,-3.367,-3.3675,-3.368,-3.3712,-3.37,-3.3702,-3.3704,-3.3782,-3.3783,-3.3783,0,0,0,0,0,0,-3.3489,-3.3497,-3.357,-3.3539,-3.3549,-3.3577,-3.3595,-3.36,-3.3612,-3.3641,-3.3646,-3.3624,-3.367,-3.3677,-3.3705,-3.3714,-3.3704,-3.3706,-3.3781,-3.3782,-3.3783,-3.3775,0,0,0,0,0,0,-3.3486,-3.3496,-3.3506,-3.3539,-3.355,-3.3595,-3.3596,-3.3601,-3.3617,-3.3618,-3.365,-3.3654,-3.367,-3.3701,-3.3708,-3.3717,-3.3708,-3.3781,-3.3782,-3.3783,-3.3774,-3.3775,-3.3776,0,0,0,0,0,-3.3483,-3.3501,-3.3507,-3.3515,-3.3564,-3.3595,-3.3601,-3.3619,-3.3618,-3.3628,-3.3647,-3.3653,-3.3712,-3.3704,-3.3712,-3.3722,-3.378,-3.3781,-3.3783,-3.3774,-3.3775,-3.3776,0,0,0,0,0,0,-3.3468,-3.3506,-3.3512,-3.3542,-3.3565,-3.3598,-3.3611,-3.362,-3.3643,-3.3643,-3.3664,-3.3671,-3.3698,-3.3713,-3.3703,-3.3748,-3.3746,-3.3749,-3.3737,-3.3738,-3.3739,-3.3734,-3.371,0,0,0,0,0,-3.3468,-3.3491,-3.3523,-3.3546,-3.3558,-3.3582,-3.3597,-3.3609,-3.3633,-3.3643,-3.3664,-3.3687,-3.371,-3.3725,-3.3749,-3.3777,-3.3784,-3.3788,-3.3789,-3.3789,-3.3791,-3.3807,-3.3809,-3.3787,-3.3787,-3.3787,0,0,-3.3469,-3.3492,-3.3505,-3.3544,-3.3563,-3.3586,-3.359,-3.3614,-3.3631,-3.3646,-3.3675,-3.3691,-3.3718,-3.3747,-3.376,-3.376,-3.3799,-3.3791,-3.3791,-3.3792,-3.3808,-3.381,-3.3812,-3.3788,-3.3788,-3.3788,0,0,-3.3481,-3.3502,-3.3523,-3.3543,-3.3572,-3.3589,-3.3594,-3.3626,-3.3637,-3.3666,-3.3678,-3.3699,-3.3739,-3.3758,-3.3773,-3.3793,-3.3801,-3.3801,-3.3804,-3.3819,-3.3821,-3.3823,-3.383,-3.3832,-3.3802,-3.3802,-3.3802,0,-3.3478,-3.3513,-3.3533,-3.3557,-3.3573,-3.3589,-3.3611,-3.3628,-3.3664,-3.3674,-3.3674,-3.3726,-3.3745,-3.3778,-3.3783,-3.3795,-3.3801,-3.3796,-3.3819,-3.3821,-3.3823,-3.383,-3.3832,-3.3802,-3.3802,-3.3802,-3.3802,0,-3.3507,-3.3532,-3.3546,-3.358,-3.3598,-3.3621,-3.3644,-3.366,-3.367,-3.3687,-3.3717,-3.3741,-3.3769,-3.3778,-3.3789,-3.3813,-3.3812,-3.3815,-3.3814,-3.3824,-3.3831,-3.3834,-3.3802,-3.3802,-3.3802,-3.3802,0,0,-3.3511,-3.3557,-3.3562,-3.3578,-3.3612,-3.3631,-3.3654,-3.3683,-3.3696,-3.372,-3.374,-3.3774,-3.3777,-3.3794,-3.3807,-3.3821,-3.3835,-3.3822,-3.3823,-3.3823,-3.3864,-3.386,-3.3863,-3.3841,-3.3842,-3.3842,-3.3861,0,-3.3527,-3.357,-3.3589,-3.3623,-3.3645,-3.3661,-3.3681,-3.3704,-3.3721,-3.3742,-3.376,-3.3784,-3.3787,-3.3797,-3.3811,-3.383,-3.3844,-3.383,-3.3859,-3.386,-3.3851,-3.3867,-3.3863,-3.388,-3.3864,-3.3865,-3.3865,0,-3.3552,-3.3577,-3.3613,-3.3645,-3.3655,-3.3673,-3.3701,-3.3721,-3.3748,-3.3758,-3.3778,-3.379,-3.3815,-3.3813,-3.3847,-3.3837,-3.3851,-3.3862,-3.3863,-3.3866,-3.3862,-3.3869,-3.3886,-3.3888,-3.3869,-3.3869,-3.3869,0,-3.355,-3.3593,-3.362,-3.3633,-3.3671,-3.3683,-3.3699,-3.3726,-3.3742,-3.3766,-3.3777,-3.3804,-3.3818,-3.3839,-3.3858,-3.3855,-3.3891,-3.389,-3.39,-3.3899,-3.3906,-3.3905,-3.3924,-3.3916,-3.3916,-3.3916,-3.3916,0,-3.3566,-3.3587,-3.362,-3.3636,-3.3661,-3.3683,-3.3706,-3.3723,-3.3747,-3.3767,-3.3782,-3.3801,-3.3826,-3.3847,-3.3863,-3.3888,-3.3895,-3.3904,-3.3908,-3.3902,-3.3901,-3.3911,-3.391,-3.3916,-3.3916,-3.3916,-3.3916,0,-3.3568,-3.359,-3.3621,-3.3655,-3.3664,-3.368,-3.3709,-3.3725,-3.3743,-3.3768,-3.3775,-3.3803,-3.3829,-3.3851,-3.3885,-3.3895,-3.3922,-3.3927,-3.3913,-3.3915,-3.3924,-3.3922,-3.3949,-3.3954,-3.3943,-3.3943,-3.3943,0,-3.3576,-3.3593,-3.3629,-3.3643,-3.366,-3.3683,-3.37,-3.3722,-3.3739,-3.3771,-3.3784,-3.3811,-3.3834,-3.3876,-3.3898,-3.3925,-3.393,-3.3938,-3.3934,-3.3928,-3.3929,-3.3928,-3.3929,-3.3937,-3.3937,-3.3937,-3.3937,0,-3.3588,-3.3599,-3.3622,-3.365,-3.367,-3.3693,-3.3716,-3.3727,-3.3754,-3.3772,-3.38,-3.3818,-3.3853,-3.388,-3.3909,-3.3926,-3.3936,-3.3939,-3.3942,-3.3936,-3.3928,-3.3932,-3.3913,-3.3938,-3.3938,-3.3938,-3.3938,-3.3938,-3.3593,-3.3609,-3.3636,-3.3662,-3.3683,-3.3704,-3.3721,-3.3742,-3.3765,-3.3796,-3.3808,-3.3835,-3.3862,-3.3902,-3.3919,-3.3941,-3.3942,-3.3947,-3.3949,-3.3949,-3.3948,-3.3925,-3.3946,-3.3946,-3.3947,-3.3947,-3.3947,0,-3.3605,-3.3624,-3.3648,-3.368,-3.3701,-3.371,-3.3736,-3.3752,-3.3777,-3.3801,-3.3824,-3.3855,-3.3882,-3.3907,-3.3935,-3.3948,-3.3953,-3.3954,-3.3953,-3.3957,-3.3946,-3.394,-3.3949,-3.3949,-3.3949,-3.3949,-3.3949,-3.3949,-3.3614,-3.3641,-3.3655,-3.3692,-3.3711,-3.3739,-3.3753,-3.3773,-3.3792,-3.3827,-3.3849,-3.3866,-3.389,-3.392,-3.3945,-3.3952,-3.3961,-3.3961,-3.3969,-3.3958,-3.3957,-3.3957,-3.3951,-3.3963,-3.3963,-3.3977,-3.3977,-3.3977]},{"header":{"parameterUnit":"m.s-1","parameterCategory":1,"la1":30.2991,"la2":30.254,"lo1":-89.0895,"lo2":-89.0444,"dy":0.0017,"dx":0.0017,"nx":28,"ny":28,"refTime":"2024-04-08T03:00:00:Z","depth":0,"parameterNumber":3,"parameterNumberName":"V-component_of_WINDS"},"data":[0,0,0,0,0,0,0,0,0,0,0,0,0,0,0,0,0,0,0,0,0,0,0,0,0,0,0,0,0,0,0,0,0,0,0,0,0,0,0,0,0,0,0,0,0,0,0,0,0,0,0,0,0,0,0,0,0,0,5.3411,5.3412,0,5.3491,5.3492,5.3493,5.3513,5.3512,5.3512,5.3511,5.3589,5.3591,5.3594,0,0,0,0,0,0,0,0,0,0,0,0,0,5.3272,5.3275,5.3411,5.3412,5.3413,5.3491,5.3492,5.3493,5.3513,5.3512,5.3512,5.3511,5.3588,5.3591,5.3594,0,0,0,0,0,0,0,0,0,0,0,0,0,5.334,5.3275,5.3411,5.3433,5.3435,5.3491,5.3492,5.3494,5.3513,5.3512,5.3511,5.3511,5.3587,5.359,5.3594,5.3633,0,0,5.3606,5.3607,0,0,0,0,0,0,0,0,5.3336,5.3345,5.3428,5.3431,5.3434,5.3491,5.3472,5.354,5.3513,5.3483,5.3511,5.351,5.3557,5.3563,5.3579,5.3637,5.364,5.3606,5.3608,5.361,5.3611,0,0,0,0,0,0,0,5.3332,5.3342,5.3443,5.343,5.3433,5.3437,5.3446,5.3485,5.3523,5.3486,5.3487,5.3497,5.3558,5.3576,5.3581,5.3641,5.3606,5.3609,5.3612,5.3613,5.3736,5.3737,0,0,0,0,0,0,5.3324,5.3338,5.344,5.3445,5.3383,5.344,5.345,5.3474,5.3523,5.353,5.3497,5.3497,5.3569,5.3577,5.3584,5.3634,5.361,5.3614,5.3616,5.3735,5.3736,5.3737,0,0,0,0,0,0,5.3321,5.3333,5.3437,5.3392,5.3406,5.3443,5.347,5.3476,5.3493,5.3532,5.3538,5.3509,5.3569,5.3579,5.3621,5.3637,5.3615,5.3619,5.3734,5.3735,5.3737,5.3734,0,0,0,0,0,0,5.3317,5.3332,5.3347,5.3392,5.3408,5.3474,5.3471,5.3478,5.35,5.3501,5.3544,5.355,5.3569,5.3616,5.3625,5.3642,5.3622,5.3732,5.3734,5.3736,5.3732,5.3735,5.3737,0,0,0,0,0,5.3312,5.3342,5.3348,5.336,5.3429,5.3475,5.3484,5.3507,5.3502,5.3518,5.3542,5.3549,5.3634,5.362,5.3631,5.3649,5.3732,5.3734,5.3736,5.3732,5.3734,5.3737,0,0,0,0,0,0,5.3296,5.3348,5.3356,5.3402,5.3434,5.3478,5.3499,5.3508,5.3542,5.3541,5.3566,5.3576,5.3617,5.3637,5.3621,5.369,5.3682,5.3687,5.3675,5.3678,5.368,5.3675,5.3625,0,0,0,0,0,5.3298,5.3332,5.3376,5.3412,5.3428,5.3461,5.3481,5.3497,5.353,5.3544,5.3571,5.3603,5.3637,5.3658,5.3692,5.3735,5.3745,5.3753,5.3755,5.3757,5.3761,5.3786,5.3791,5.3744,5.3744,5.3744,0,0,5.3302,5.3335,5.3355,5.341,5.3437,5.3471,5.3472,5.3508,5.3533,5.3548,5.3592,5.3613,5.365,5.3694,5.3714,5.3711,5.3776,5.376,5.3761,5.3764,5.3789,5.3794,5.3797,5.3746,5.3745,5.3745,0,0,5.3328,5.3356,5.339,5.3418,5.3459,5.3481,5.3489,5.3532,5.3548,5.3592,5.3604,5.3634,5.3692,5.3718,5.3739,5.3776,5.3784,5.3786,5.3797,5.3822,5.3826,5.383,5.3844,5.3849,5.379,5.379,5.379,0,5.3328,5.3381,5.3406,5.3442,5.3466,5.3484,5.3519,5.3543,5.3592,5.3608,5.3605,5.3679,5.3705,5.3756,5.3765,5.3781,5.3791,5.3782,5.3824,5.3827,5.3831,5.3845,5.385,5.379,5.379,5.379,5.379,0,5.3379,5.3416,5.3439,5.3488,5.3515,5.355,5.358,5.3603,5.3616,5.3638,5.3682,5.3714,5.3755,5.3768,5.378,5.3821,5.3818,5.3819,5.3812,5.3835,5.3849,5.3854,5.379,5.379,5.379,5.379,0,0,5.3397,5.3461,5.3469,5.3493,5.354,5.3569,5.3604,5.3646,5.3666,5.3699,5.373,5.378,5.3781,5.3805,5.382,5.3842,5.3871,5.384,5.3841,5.3845,5.3919,5.3919,5.3925,5.3876,5.3877,5.3878,5.3917,0,5.343,5.3496,5.352,5.3575,5.3609,5.3627,5.3658,5.369,5.3712,5.3743,5.3766,5.3802,5.38,5.3815,5.3837,5.3862,5.3886,5.386,5.3905,5.3906,5.3896,5.3932,5.3932,5.3967,5.3922,5.3923,5.3923,0,5.3476,5.3513,5.3571,5.3616,5.3631,5.3659,5.37,5.373,5.3767,5.3781,5.3809,5.3823,5.386,5.3851,5.3903,5.3885,5.3905,5.392,5.3922,5.3927,5.3917,5.3939,5.3979,5.3984,5.3932,5.3931,5.3931,0,5.3485,5.3549,5.3592,5.3612,5.3664,5.3684,5.3706,5.3742,5.3766,5.3801,5.3817,5.3855,5.3877,5.3906,5.3929,5.392,5.398,5.3972,5.3993,5.3992,5.4005,5.4004,5.4049,5.4016,5.4016,5.4016,5.4016,0,5.352,5.3555,5.3597,5.3624,5.3664,5.3691,5.373,5.3753,5.3786,5.3817,5.3833,5.3862,5.3891,5.3924,5.3942,5.3983,5.3992,5.4005,5.4009,5.4004,5.4003,5.4018,5.4016,5.4017,5.4017,5.4017,5.4016,0,5.3537,5.3566,5.3616,5.3662,5.3675,5.3702,5.3742,5.3768,5.3791,5.383,5.3841,5.3876,5.3915,5.3942,5.3991,5.4003,5.4049,5.4052,5.4037,5.4039,5.4059,5.4057,5.4116,5.4125,5.4085,5.4085,5.4085,0,5.3558,5.3586,5.3636,5.3659,5.3682,5.3719,5.3744,5.3771,5.3797,5.3841,5.3862,5.3903,5.3937,5.3999,5.4028,5.4066,5.4071,5.4089,5.4077,5.4071,5.4073,5.4072,5.4075,5.4091,5.4092,5.4092,5.4092,0,5.3592,5.3605,5.3642,5.3684,5.3714,5.3748,5.3782,5.3799,5.3832,5.386,5.3901,5.3928,5.398,5.402,5.4061,5.4083,5.4093,5.4096,5.4103,5.4098,5.4089,5.4095,5.4043,5.4094,5.4094,5.4094,5.4094,5.4094,5.3612,5.3639,5.3679,5.3719,5.3748,5.3779,5.3807,5.3834,5.3869,5.3915,5.3928,5.3972,5.4008,5.4065,5.4088,5.4121,5.412,5.4129,5.4132,5.4134,5.4135,5.4082,5.4129,5.4129,5.4129,5.4129,5.4129,0,5.3649,5.3676,5.3712,5.3761,5.3792,5.38,5.3838,5.3864,5.3903,5.3936,5.397,5.4018,5.4057,5.409,5.4131,5.4151,5.4157,5.4161,5.416,5.4166,5.4134,5.4124,5.4156,5.4156,5.4156,5.4156,5.4156,5.4156,5.3671,5.3717,5.3735,5.3795,5.3821,5.3865,5.3887,5.3916,5.3943,5.3997,5.403,5.4052,5.4085,5.4129,5.4165,5.4174,5.4188,5.4191,5.4201,5.4171,5.4168,5.4165,5.4156,5.4194,5.4194,5.4231,5.4231,5.4231]}]]